[[{"header":{"parameterUnit":"m.s-1","parameterCategory":1,"la1":30.2991,"la2":30.254,"lo1":-89.0895,"lo2":-89.0444,"dy":0.0017,"dx":0.0017,"nx":28,"ny":28,"refTime":"2024-12-08T03:00:00:Z","depth":0,"parameterNumber":2,"parameterNumberName":"U-component_of_WINDS"},"data":[0,0,0,0,0,0,0,0,0,0,0,0,0,0,0,0,0,0,0,0,0,0,0,0,0,0,0,0,0,0,0,0,0,0,0,0,0,0,0,0,0,0,0,0,0,0,0,0,0,0,0,0,0,0,0,0,0,0,1.2051,1.205,0,1.2001,1.2001,1.2,1.1964,1.1964,1.1964,1.1964,1.1912,1.1911,1.191,0,0,0,0,0,0,0,0,0,0,0,0,0,1.2116,1.2115,1.2051,1.205,1.205,1.2001,1.2001,1.2,1.1965,1.1964,1.1964,1.1963,1.1913,1.1912,1.191,0,0,0,0,0,0,0,0,0,0,0,0,0,1.2079,1.2115,1.2051,1.2026,1.2023,1.2001,1.2001,1.2,1.1965,1.1964,1.1964,1.1963,1.1913,1.1912,1.191,1.1909,0,0,1.1905,1.1904,0,0,0,0,0,0,0,0,1.2081,1.2077,1.203,1.2028,1.2025,1.1989,1.2005,1.1969,1.1965,1.1987,1.1964,1.1963,1.1938,1.1934,1.1926,1.1906,1.1904,1.1905,1.1904,1.1903,1.1903,0,0,0,0,0,0,0,1.2084,1.2079,1.2031,1.203,1.2026,1.2018,1.2012,1.1998,1.1966,1.1985,1.1982,1.1977,1.1936,1.1928,1.1925,1.1903,1.1905,1.1903,1.1902,1.1902,1.1882,1.1883,0,0,0,0,0,0,1.209,1.2081,1.2033,1.203,1.2053,1.2017,1.2011,1.2001,1.1966,1.196,1.1977,1.1975,1.1931,1.1927,1.1923,1.192,1.1903,1.1902,1.1901,1.1882,1.1882,1.1883,0,0,0,0,0,0,1.2092,1.2086,1.2035,1.2055,1.2048,1.2016,1.2005,1.2,1.1991,1.196,1.1954,1.1974,1.193,1.1925,1.1913,1.1918,1.1901,1.1899,1.1881,1.1882,1.1882,1.1914,0,0,0,0,0,0,1.2094,1.2087,1.2086,1.2055,1.2047,1.2026,1.2006,1.1999,1.1988,1.1985,1.1955,1.195,1.1929,1.1916,1.1911,1.1915,1.1898,1.1881,1.1881,1.1882,1.1913,1.1916,1.1919,0,0,0,0,0,1.2096,1.2096,1.2086,1.208,1.2044,1.2026,1.2021,1.1998,1.1989,1.1988,1.1968,1.1951,1.1918,1.1915,1.1909,1.1913,1.188,1.1881,1.1882,1.1911,1.1915,1.1919,0,0,0,0,0,0,1.2128,1.2092,1.208,1.207,1.2051,1.202,1.2018,1.2002,1.1986,1.1984,1.1955,1.1949,1.194,1.1925,1.1922,1.1911,1.1897,1.1897,1.1921,1.1925,1.1928,1.1932,1.1897,0,0,0,0,0,1.2134,1.2122,1.2091,1.2085,1.2076,1.2049,1.204,1.2024,1.2003,1.1995,1.1974,1.1955,1.1941,1.1932,1.1916,1.1911,1.1904,1.1911,1.1914,1.1916,1.1917,1.1914,1.1917,1.1886,1.1886,1.1886,0,0,1.2145,1.2124,1.2118,1.2091,1.2074,1.2063,1.2042,1.2031,1.2022,1.1993,1.1981,1.1965,1.1942,1.1934,1.1929,1.1921,1.1924,1.1918,1.192,1.1919,1.1916,1.1919,1.1922,1.1887,1.1887,1.1887,0,0,1.2161,1.2144,1.2138,1.2122,1.2098,1.208,1.2079,1.2051,1.2039,1.2027,1.2005,1.1995,1.197,1.1955,1.1944,1.1957,1.1942,1.1953,1.1969,1.1967,1.197,1.1972,1.1978,1.198,1.1954,1.1954,1.1954,0,1.2179,1.2161,1.2136,1.2127,1.2116,1.209,1.2084,1.2071,1.2043,1.2036,1.2028,1.1998,1.198,1.1969,1.1972,1.1964,1.1962,1.1956,1.1971,1.1973,1.1975,1.198,1.1982,1.1955,1.1955,1.1955,1.1955,0,1.2184,1.2173,1.2171,1.2146,1.2135,1.2127,1.2102,1.2094,1.2079,1.2063,1.2051,1.203,1.201,1.2006,1.1991,1.1993,1.199,1.1977,1.1962,1.198,1.1985,1.1986,1.1958,1.1957,1.1957,1.1956,0,0,1.2217,1.2181,1.218,1.217,1.2142,1.2133,1.2125,1.2107,1.2101,1.2083,1.2077,1.2057,1.2046,1.2034,1.2017,1.2015,1.2029,1.2003,1.2002,1.201,1.2032,1.2042,1.2045,1.2018,1.2019,1.2019,1.2034,0,1.223,1.2214,1.2193,1.2184,1.2174,1.215,1.2144,1.2127,1.2111,1.2101,1.2084,1.2071,1.2056,1.2049,1.2046,1.2028,1.2033,1.2026,1.2013,1.2012,1.202,1.2047,1.2058,1.2073,1.2036,1.2036,1.2036,0,1.2241,1.2227,1.2218,1.2193,1.2188,1.2183,1.2165,1.2155,1.2136,1.2125,1.2113,1.2095,1.2087,1.2074,1.2062,1.2058,1.2051,1.2041,1.2041,1.204,1.2026,1.2047,1.2077,1.208,1.2038,1.2038,1.2038,0,1.2268,1.2245,1.2238,1.2229,1.22,1.2197,1.2185,1.2166,1.2157,1.2142,1.2136,1.212,1.2112,1.21,1.2079,1.2071,1.207,1.2055,1.2062,1.2063,1.2063,1.2063,1.2094,1.2057,1.2057,1.2057,1.2057,0,1.2284,1.228,1.225,1.2245,1.224,1.2216,1.2212,1.2198,1.2181,1.2174,1.2152,1.2146,1.2118,1.2109,1.2092,1.2086,1.2082,1.2073,1.2069,1.2076,1.2077,1.2071,1.207,1.2058,1.2058,1.2057,1.2057,0,1.2313,1.2292,1.2283,1.2257,1.225,1.2248,1.2226,1.2221,1.2206,1.2197,1.2193,1.2168,1.2156,1.2134,1.2116,1.2105,1.2102,1.2094,1.2109,1.2107,1.2115,1.2115,1.2143,1.2147,1.2108,1.2108,1.2108,0,1.2325,1.2322,1.2296,1.229,1.2279,1.2269,1.2261,1.2238,1.223,1.2209,1.2207,1.2194,1.2182,1.2164,1.2145,1.2131,1.2123,1.2134,1.2121,1.2128,1.2125,1.2126,1.2126,1.2137,1.2138,1.2138,1.2138,0,1.2349,1.234,1.2328,1.2314,1.2305,1.2293,1.2279,1.2275,1.225,1.2242,1.223,1.2221,1.2203,1.2191,1.2174,1.2162,1.2147,1.2143,1.2144,1.2151,1.216,1.2157,1.2118,1.2142,1.2142,1.2142,1.2141,1.2141,1.237,1.2367,1.235,1.2338,1.2326,1.2315,1.2309,1.2294,1.2284,1.2268,1.2255,1.2245,1.2227,1.2204,1.2193,1.2185,1.2177,1.2178,1.2179,1.218,1.2183,1.2161,1.2182,1.2182,1.2182,1.2181,1.2181,0,1.2394,1.2383,1.2373,1.2355,1.2347,1.2334,1.2319,1.2313,1.2304,1.229,1.2279,1.2266,1.2255,1.2235,1.2222,1.2219,1.2212,1.2217,1.2217,1.2215,1.219,1.2191,1.2223,1.2223,1.2223,1.2223,1.2223,1.2223,1.2406,1.24,1.2389,1.2378,1.2366,1.2356,1.2349,1.2339,1.2327,1.2315,1.2305,1.2293,1.2277,1.2263,1.2252,1.2246,1.2243,1.225,1.2243,1.222,1.2216,1.2213,1.2213,1.2249,1.2249,1.2268,1.2268,1.2268]},{"header":{"parameterUnit":"m.s-1","parameterCategory":1,"la1":30.2991,"la2":30.254,"lo1":-89.0895,"lo2":-89.0444,"dy":0.0017,"dx":0.0017,"nx":28,"ny":28,"refTime":"2024-12-08T03:00:00:Z","depth":0,"parameterNumber":3,"parameterNumberName":"V-component_of_WINDS"},"data":[0,0,0,0,0,0,0,0,0,0,0,0,0,0,0,0,0,0,0,0,0,0,0,0,0,0,0,0,0,0,0,0,0,0,0,0,0,0,0,0,0,0,0,0,0,0,0,0,0,0,0,0,0,0,0,0,0,0,4.0074,4.0075,0,4.0157,4.0158,4.0159,4.0161,4.016,4.0159,4.0158,4.0237,4.024,4.0243,0,0,0,0,0,0,0,0,0,0,0,0,0,3.9912,3.9915,4.0074,4.0075,4.0076,4.0157,4.0158,4.0159,4.0161,4.016,4.0158,4.0157,4.0236,4.024,4.0244,0,0,0,0,0,0,0,0,0,0,0,0,0,3.9987,3.9916,4.0074,4.0087,4.0089,4.0157,4.0158,4.016,4.0161,4.016,4.0158,4.0157,4.0235,4.024,4.0244,4.0303,0,0,4.0258,4.026,0,0,0,0,0,0,0,0,3.9983,3.9993,4.0084,4.0086,4.0089,4.0147,4.013,4.0208,4.0162,4.0134,4.0158,4.0156,4.0208,4.0215,4.0234,4.0307,4.031,4.0259,4.0261,4.0263,4.0265,0,0,0,0,0,0,0,3.9978,3.999,4.0107,4.0085,4.0088,4.0087,4.0096,4.0145,4.0178,4.0136,4.0136,4.0146,4.0209,4.0229,4.0236,4.0311,4.0259,4.0263,4.0265,4.0267,4.0438,4.044,0,0,0,0,0,0,3.9971,3.9986,4.0104,4.0109,4.0031,4.0091,4.0101,4.013,4.0178,4.0184,4.0148,4.0146,4.0222,4.023,4.0238,4.0313,4.0263,4.0268,4.027,4.0436,4.0439,4.044,0,0,0,0,0,0,3.9967,3.9982,4.0101,4.0048,4.0063,4.0096,4.0128,4.0132,4.0153,4.0187,4.0192,4.0163,4.0221,4.0232,4.0288,4.0315,4.027,4.0274,4.0434,4.0437,4.0439,4.046,0,0,0,0,0,0,3.9963,3.998,4.0004,4.0048,4.0066,4.0151,4.0129,4.0135,4.0161,4.016,4.0202,4.0208,4.0221,4.0281,4.0292,4.0321,4.0278,4.0432,4.0435,4.0439,4.0457,4.0463,4.0468,0,0,0,0,0,3.9957,4.0005,4.0006,4.002,4.0097,4.0152,4.0162,4.0178,4.0163,4.0187,4.0209,4.0206,4.031,4.0287,4.0299,4.033,4.043,4.0434,4.0438,4.0455,4.0462,4.0468,0,0,0,0,0,0,3.9962,4.0011,4.0012,4.0076,4.011,4.0152,4.0183,4.0185,4.0222,4.022,4.0236,4.0245,4.0301,4.032,4.0294,4.039,4.0368,4.0375,4.0376,4.0383,4.0389,4.0384,4.0281,0,0,0,0,0,3.9971,4.0013,4.0053,4.0106,4.0123,4.015,4.0175,4.0184,4.0219,4.0233,4.0259,4.0292,4.0332,4.0358,4.0396,4.0459,4.0468,4.0486,4.0491,4.0495,4.0502,4.0538,4.0546,4.0454,4.0454,4.0453,0,0,3.9989,4.0021,4.0047,4.0108,4.0135,4.0178,4.0162,4.0208,4.024,4.0239,4.0296,4.0315,4.0352,4.0412,4.044,4.043,4.0529,4.0501,4.0504,4.0508,4.0543,4.0551,4.0559,4.0456,4.0456,4.0455,0,0,4.0045,4.0073,4.0121,4.0149,4.0192,4.0209,4.0221,4.0263,4.0277,4.0333,4.0334,4.0371,4.0439,4.0466,4.0489,4.0555,4.0554,4.0566,4.0596,4.0631,4.0638,4.0645,4.0671,4.0679,4.0572,4.0572,4.0572,0,4.0062,4.0129,4.0145,4.0192,4.0219,4.0222,4.0271,4.0296,4.0348,4.0366,4.0354,4.0441,4.0466,4.0533,4.055,4.0567,4.0581,4.0563,4.0636,4.0643,4.0649,4.0674,4.0683,4.0574,4.0573,4.0573,4.0573,0,4.0148,4.0194,4.0228,4.0281,4.0311,4.0358,4.038,4.0408,4.0415,4.0433,4.049,4.052,4.0566,4.0582,4.0587,4.065,4.0643,4.0633,4.0612,4.066,4.0683,4.0692,4.0576,4.0575,4.0575,4.0574,0,0,4.0212,4.0274,4.0286,4.0311,4.0357,4.0392,4.0439,4.0485,4.051,4.0544,4.0585,4.0642,4.0634,4.066,4.0668,4.0698,4.0751,4.0685,4.0686,4.0699,4.0824,4.0833,4.0843,4.0749,4.0751,4.0752,4.0821,0,4.0275,4.0362,4.0377,4.0452,4.0495,4.0498,4.0538,4.0571,4.0589,4.0626,4.0644,4.0687,4.0672,4.0688,4.0717,4.0738,4.0777,4.0733,4.0787,4.0789,4.0781,4.0855,4.0865,4.0929,4.083,4.0832,4.0833,0,4.0361,4.0401,4.0481,4.0523,4.0542,4.0578,4.0623,4.0658,4.0694,4.0705,4.0734,4.0739,4.0786,4.0761,4.0827,4.0797,4.0819,4.0833,4.0836,4.0844,4.0816,4.0868,4.0949,4.096,4.0847,4.0846,4.0845,0,4.0403,4.0476,4.0534,4.0554,4.0604,4.063,4.0651,4.0686,4.0713,4.0751,4.0769,4.081,4.0833,4.0864,4.088,4.086,4.0945,4.0921,4.0956,4.0956,4.0976,4.0975,4.1065,4.0986,4.0985,4.0985,4.0985,0,4.0474,4.0523,4.0554,4.059,4.0644,4.0661,4.0714,4.0734,4.0765,4.0804,4.0807,4.0843,4.086,4.0898,4.091,4.0963,4.0973,4.0983,4.0986,4.0985,4.0984,4.1002,4.0999,4.0988,4.0987,4.0987,4.0986,0,4.0531,4.0554,4.0617,4.0659,4.0671,4.071,4.0745,4.0779,4.0796,4.0846,4.0858,4.0885,4.093,4.0948,4.1002,4.101,4.1072,4.107,4.1061,4.1063,4.1098,4.1096,4.1205,4.1221,4.1128,4.1129,4.113,0,4.0577,4.0615,4.0662,4.069,4.0713,4.0756,4.0785,4.0801,4.083,4.0874,4.0903,4.0948,4.0986,4.1058,4.1081,4.1122,4.1123,4.1158,4.113,4.1127,4.1127,4.1126,4.1131,4.1165,4.1166,4.1167,4.1167,0,4.0656,4.0665,4.0707,4.0753,4.0788,4.0824,4.0859,4.0881,4.0902,4.0934,4.0982,4.1011,4.1068,4.1113,4.1156,4.1176,4.1176,4.1176,4.1187,4.1187,4.1182,4.1188,4.1079,4.1174,4.1173,4.1173,4.1172,4.1172,4.0711,4.0746,4.0785,4.0832,4.086,4.0893,4.0928,4.095,4.0991,4.104,4.1046,4.1097,4.1131,4.119,4.1211,4.1251,4.1241,4.1256,4.1261,4.1265,4.1269,4.1173,4.1258,4.1258,4.1258,4.1257,4.1257,0,4.0793,4.0818,4.0861,4.0911,4.0948,4.0945,4.0983,4.1014,4.106,4.1093,4.113,4.1185,4.1229,4.1255,4.1299,4.1325,4.1326,4.1337,4.1336,4.1341,4.1273,4.1261,4.1335,4.1335,4.1335,4.1335,4.1335,4.1335,4.084,4.09,4.0914,4.0987,4.1011,4.1064,4.1086,4.1116,4.1143,4.1205,4.1242,4.126,4.129,4.1336,4.1376,4.1382,4.1399,4.1411,4.1417,4.1354,4.1346,4.1338,4.1327,4.1414,4.1414,4.1482,4.1483,4.1483]}]]